[[{"header":{"parameterUnit":"m.s-1","parameterCategory":1,"la1":30.2991,"la2":30.254,"lo1":-89.0895,"lo2":-89.0444,"dy":0.0017,"dx":0.0017,"nx":28,"ny":28,"refTime":"2024-03-10T21:00:00:Z","depth":0,"parameterNumber":2,"parameterNumberName":"U-component_of_WINDS"},"data":[0,0,0,0,0,0,0,0,0,0,0,0,0,0,0,0,0,0,0,0,0,0,0,0,0,0,0,0,0,0,0,0,0,0,0,0,0,0,0,0,0,0,0,0,0,0,0,0,0,0,0,0,0,0,0,0,0,0,-1.6053,-1.6053,0,-1.6031,-1.6031,-1.6031,-1.5921,-1.5918,-1.5915,-1.5913,-1.5895,-1.5897,-1.5899,0,0,0,0,0,0,0,0,0,0,0,0,0,-1.6006,-1.6008,-1.6053,-1.6053,-1.6053,-1.6031,-1.6031,-1.6031,-1.5921,-1.5918,-1.5915,-1.5912,-1.5894,-1.5897,-1.5899,0,0,0,0,0,0,0,0,0,0,0,0,0,-1.601,-1.6008,-1.6054,-1.5996,-1.599,-1.6031,-1.6031,-1.603,-1.5922,-1.5918,-1.5914,-1.591,-1.5894,-1.5896,-1.5899,-1.5996,0,0,-1.5908,-1.591,0,0,0,0,0,0,0,0,-1.601,-1.6012,-1.6004,-1.6,-1.5994,-1.5974,-1.6007,-1.6019,-1.5923,-1.5948,-1.5913,-1.5908,-1.5925,-1.5925,-1.593,-1.5995,-1.5994,-1.5909,-1.591,-1.5912,-1.5912,0,0,0,0,0,0,0,-1.601,-1.6012,-1.6045,-1.6004,-1.5998,-1.5972,-1.5968,-1.6009,-1.5959,-1.5945,-1.5937,-1.5936,-1.5921,-1.5927,-1.5928,-1.5994,-1.5908,-1.5911,-1.5913,-1.5914,-1.6139,-1.6143,0,0,0,0,0,0,-1.6017,-1.6013,-1.6045,-1.6044,-1.5992,-1.5976,-1.5972,-1.5985,-1.5958,-1.595,-1.5939,-1.5931,-1.5924,-1.5925,-1.5927,-1.604,-1.5912,-1.5914,-1.5916,-1.6135,-1.614,-1.6145,0,0,0,0,0,0,-1.6016,-1.6021,-1.6046,-1.6026,-1.6027,-1.5981,-1.5996,-1.5986,-1.5992,-1.5953,-1.5944,-1.5954,-1.5921,-1.5923,-1.598,-1.6038,-1.5916,-1.5918,-1.613,-1.6137,-1.6143,-1.6265,0,0,0,0,0,0,-1.6016,-1.6021,-1.6056,-1.6028,-1.6029,-1.6098,-1.6,-1.5989,-1.5997,-1.5985,-1.5965,-1.5958,-1.5918,-1.5976,-1.5983,-1.6039,-1.5921,-1.6125,-1.6133,-1.6141,-1.6256,-1.6275,-1.6291,0,0,0,0,0,-1.6014,-1.6093,-1.6059,-1.6063,-1.6071,-1.6101,-1.6102,-1.6053,-1.6002,-1.6038,-1.6013,-1.5958,-1.603,-1.5983,-1.5989,-1.6048,-1.6121,-1.6131,-1.614,-1.6248,-1.6271,-1.6291,0,0,0,0,0,0,-1.6131,-1.6088,-1.605,-1.6121,-1.6115,-1.6083,-1.6126,-1.608,-1.609,-1.6079,-1.602,-1.6016,-1.6082,-1.607,-1.6018,-1.6141,-1.6066,-1.6078,-1.6146,-1.6168,-1.6185,-1.6187,-1.5923,0,0,0,0,0,-1.6164,-1.6191,-1.6152,-1.6219,-1.6218,-1.6173,-1.6184,-1.6147,-1.614,-1.6137,-1.6117,-1.6113,-1.6135,-1.615,-1.6168,-1.6253,-1.6248,-1.6297,-1.6315,-1.6329,-1.634,-1.6386,-1.6408,-1.6176,-1.6176,-1.6176,0,0,-1.6235,-1.6215,-1.6235,-1.6242,-1.6233,-1.6264,-1.6172,-1.6207,-1.623,-1.6143,-1.6195,-1.618,-1.6172,-1.6244,-1.6275,-1.6236,-1.6403,-1.6342,-1.6354,-1.6356,-1.6398,-1.642,-1.644,-1.6183,-1.6181,-1.618,0,0,-1.6379,-1.6365,-1.642,-1.6413,-1.6401,-1.637,-1.6384,-1.6358,-1.6345,-1.6395,-1.6331,-1.6358,-1.6396,-1.6394,-1.6397,-1.6542,-1.6493,-1.6549,-1.6642,-1.6688,-1.6706,-1.6722,-1.6775,-1.6794,-1.656,-1.656,-1.656,0,-1.6468,-1.651,-1.6454,-1.6494,-1.65,-1.6421,-1.6477,-1.6474,-1.6469,-1.6475,-1.6432,-1.6479,-1.6468,-1.6539,-1.6574,-1.6579,-1.6594,-1.6552,-1.6707,-1.6723,-1.6737,-1.6787,-1.6807,-1.6567,-1.6566,-1.6566,-1.6565,0,-1.6621,-1.6651,-1.6697,-1.6693,-1.6703,-1.6751,-1.6705,-1.6723,-1.6685,-1.666,-1.6714,-1.6698,-1.6712,-1.6726,-1.6689,-1.6792,-1.6769,-1.6718,-1.6642,-1.6767,-1.6813,-1.6832,-1.6577,-1.6575,-1.6573,-1.6571,0,0,-1.6838,-1.6802,-1.682,-1.6818,-1.6799,-1.6822,-1.6868,-1.6879,-1.6897,-1.6896,-1.6934,-1.6969,-1.6921,-1.6926,-1.6889,-1.6928,-1.7046,-1.6872,-1.6871,-1.6906,-1.716,-1.7199,-1.7222,-1.7012,-1.7016,-1.7019,-1.7161,0,-1.6977,-1.705,-1.7002,-1.7084,-1.7112,-1.7038,-1.7078,-1.7072,-1.705,-1.7072,-1.7048,-1.7074,-1.7008,-1.7011,-1.7047,-1.7024,-1.7096,-1.7013,-1.7049,-1.7051,-1.7054,-1.7246,-1.7287,-1.7422,-1.7178,-1.7181,-1.7183,0,-1.7148,-1.7154,-1.7239,-1.7215,-1.7225,-1.7261,-1.7269,-1.729,-1.7283,-1.7264,-1.727,-1.7223,-1.7268,-1.7192,-1.7254,-1.7199,-1.7211,-1.7202,-1.7206,-1.7209,-1.7126,-1.7255,-1.7464,-1.7485,-1.7211,-1.7208,-1.7207,0,-1.7299,-1.7329,-1.7383,-1.7384,-1.7357,-1.7385,-1.7375,-1.7363,-1.7374,-1.7382,-1.7389,-1.7402,-1.741,-1.7422,-1.7381,-1.7329,-1.7449,-1.737,-1.7437,-1.7438,-1.7466,-1.7465,-1.7681,-1.7472,-1.7472,-1.7471,-1.7471,0,-1.746,-1.7515,-1.7451,-1.7485,-1.7545,-1.749,-1.7552,-1.7535,-1.7525,-1.7556,-1.7493,-1.7524,-1.7467,-1.7492,-1.7461,-1.7518,-1.7522,-1.7509,-1.7501,-1.7516,-1.7518,-1.7524,-1.7514,-1.7477,-1.7475,-1.7474,-1.7474,0,-1.764,-1.7599,-1.7654,-1.7624,-1.7618,-1.7664,-1.7639,-1.7671,-1.7644,-1.7684,-1.769,-1.765,-1.7677,-1.7637,-1.7659,-1.7638,-1.7717,-1.7694,-1.772,-1.7713,-1.7783,-1.7778,-1.8012,-1.8041,-1.7812,-1.7814,-1.7816,0,-1.7745,-1.7786,-1.776,-1.7776,-1.777,-1.7795,-1.7806,-1.7753,-1.7767,-1.7762,-1.7795,-1.7816,-1.783,-1.7877,-1.7851,-1.7868,-1.7845,-1.7926,-1.7848,-1.7862,-1.7848,-1.7847,-1.7852,-1.7943,-1.7946,-1.7948,-1.795,0,-1.7938,-1.7916,-1.7932,-1.7942,-1.7956,-1.7962,-1.7964,-1.798,-1.7925,-1.7945,-1.797,-1.7982,-1.8004,-1.8027,-1.8038,-1.803,-1.7982,-1.7974,-1.7991,-1.8008,-1.8022,-1.8016,-1.7765,-1.7969,-1.7967,-1.7966,-1.7965,-1.7964,-1.8084,-1.8117,-1.8105,-1.8126,-1.8121,-1.8124,-1.8153,-1.813,-1.815,-1.8163,-1.8131,-1.8166,-1.8159,-1.8168,-1.8166,-1.8193,-1.8158,-1.8181,-1.8188,-1.8195,-1.8206,-1.8016,-1.8195,-1.8194,-1.8193,-1.8193,-1.8192,0,-1.8275,-1.8263,-1.8283,-1.8286,-1.8304,-1.8255,-1.8254,-1.8272,-1.8303,-1.8299,-1.8314,-1.8345,-1.8367,-1.8343,-1.836,-1.8387,-1.8366,-1.8394,-1.8392,-1.8392,-1.8236,-1.822,-1.8411,-1.8411,-1.8411,-1.8411,-1.8411,-1.8411,-1.8376,-1.843,-1.8406,-1.8458,-1.8446,-1.8478,-1.8482,-1.8485,-1.8482,-1.8519,-1.8536,-1.852,-1.8509,-1.8525,-1.8544,-1.8536,-1.8547,-1.8583,-1.8568,-1.8424,-1.8402,-1.8382,-1.8367,-1.8585,-1.8586,-1.8721,-1.8723,-1.8724]},{"header":{"parameterUnit":"m.s-1","parameterCategory":1,"la1":30.2991,"la2":30.254,"lo1":-89.0895,"lo2":-89.0444,"dy":0.0017,"dx":0.0017,"nx":28,"ny":28,"refTime":"2024-03-10T21:00:00:Z","depth":0,"parameterNumber":3,"parameterNumberName":"V-component_of_WINDS"},"data":[0,0,0,0,0,0,0,0,0,0,0,0,0,0,0,0,0,0,0,0,0,0,0,0,0,0,0,0,0,0,0,0,0,0,0,0,0,0,0,0,0,0,0,0,0,0,0,0,0,0,0,0,0,0,0,0,0,0,1.5994,1.5993,0,1.5927,1.5926,1.5925,1.5888,1.5888,1.5888,1.5888,1.5814,1.5812,1.581,0,0,0,0,0,0,0,0,0,0,0,0,0,1.6086,1.6085,1.5994,1.5993,1.5992,1.5927,1.5926,1.5925,1.5888,1.5888,1.5888,1.5888,1.5815,1.5812,1.581,0,0,0,0,0,0,0,0,0,0,0,0,0,1.6035,1.6084,1.5994,1.5966,1.5963,1.5927,1.5926,1.5925,1.5888,1.5888,1.5888,1.5888,1.5815,1.5813,1.581,1.5795,0,0,1.5801,1.58,0,0,0,0,0,0,0,0,1.6038,1.6032,1.5971,1.5968,1.5965,1.5916,1.5931,1.5881,1.5888,1.5916,1.5888,1.5888,1.5848,1.5842,1.583,1.5792,1.5788,1.5801,1.5799,1.5798,1.5797,0,0,0,0,0,0,0,1.6042,1.6035,1.5967,1.597,1.5966,1.5956,1.5948,1.5922,1.5883,1.5914,1.5911,1.5904,1.5846,1.5833,1.5828,1.5787,1.5801,1.5799,1.5797,1.5796,1.5734,1.5734,0,0,0,0,0,0,1.6051,1.6038,1.5969,1.5965,1.6002,1.5954,1.5946,1.5931,1.5884,1.5876,1.5904,1.5902,1.5837,1.5831,1.5825,1.5804,1.5798,1.5795,1.5794,1.5734,1.5734,1.5734,0,0,0,0,0,0,1.6053,1.6045,1.5972,1.6001,1.5991,1.5953,1.5937,1.593,1.5917,1.5876,1.5869,1.5898,1.5837,1.5829,1.5803,1.5801,1.5794,1.5792,1.5733,1.5734,1.5734,1.5763,0,0,0,0,0,0,1.6056,1.6046,1.6041,1.6001,1.5989,1.5953,1.5937,1.5929,1.5913,1.591,1.5868,1.5861,1.5836,1.5808,1.58,1.5797,1.5789,1.5733,1.5734,1.5734,1.5762,1.5764,1.5766,0,0,0,0,0,1.6059,1.6051,1.6041,1.6033,1.5983,1.5953,1.5946,1.5919,1.5913,1.5907,1.5881,1.5863,1.5803,1.5805,1.5797,1.5793,1.5733,1.5733,1.5734,1.5761,1.5764,1.5766,0,0,0,0,0,0,1.6089,1.6045,1.6033,1.6012,1.5987,1.5947,1.5938,1.5922,1.5897,1.5895,1.5861,1.5851,1.5829,1.5808,1.5812,1.5776,1.5766,1.5765,1.579,1.5792,1.5794,1.5799,1.5787,0,0,0,0,0,1.6094,1.6075,1.6037,1.6022,1.601,1.5976,1.5962,1.5944,1.5915,1.5904,1.5876,1.5847,1.5822,1.5806,1.5781,1.5759,1.5749,1.5752,1.5754,1.5756,1.5755,1.5742,1.5742,1.5734,1.5734,1.5734,0,0,1.6102,1.6076,1.6066,1.6027,1.6005,1.5985,1.5967,1.5947,1.5931,1.59,1.5874,1.5853,1.5819,1.5796,1.5784,1.5778,1.5755,1.5756,1.5758,1.5756,1.5742,1.5743,1.5743,1.5734,1.5734,1.5734,0,0,1.6107,1.6086,1.6071,1.605,1.6018,1.5996,1.5993,1.5955,1.594,1.5914,1.5891,1.5871,1.5828,1.5805,1.5788,1.5786,1.5768,1.5778,1.5788,1.5775,1.5776,1.5776,1.5775,1.5775,1.5777,1.5777,1.5777,0,1.6122,1.6092,1.6065,1.6046,1.603,1.6003,1.5987,1.5967,1.5928,1.5916,1.5911,1.5857,1.5832,1.5803,1.5803,1.579,1.5784,1.5782,1.5778,1.5778,1.5778,1.5777,1.5776,1.5779,1.5779,1.5778,1.5778,0,1.611,1.609,1.6082,1.6046,1.6029,1.6011,1.5981,1.5966,1.595,1.5928,1.5902,1.5871,1.5839,1.5831,1.5814,1.5799,1.5797,1.5785,1.5774,1.5781,1.5779,1.5778,1.5781,1.578,1.578,1.5779,0,0,1.6131,1.6083,1.608,1.6064,1.6027,1.601,1.5991,1.5961,1.5949,1.5923,1.5905,1.5871,1.586,1.5841,1.582,1.581,1.5809,1.5799,1.5798,1.5802,1.5791,1.5799,1.5799,1.5798,1.5798,1.5798,1.5793,0,1.6131,1.6097,1.6073,1.6048,1.6029,1.6004,1.5987,1.5962,1.5942,1.5921,1.5897,1.5873,1.5862,1.585,1.5838,1.5812,1.5807,1.5812,1.578,1.5779,1.5788,1.5798,1.5806,1.5803,1.5792,1.5792,1.5792,0,1.6125,1.6102,1.6076,1.6041,1.6032,1.6018,1.5989,1.597,1.5941,1.5926,1.5906,1.5885,1.5863,1.5856,1.5824,1.5828,1.5814,1.5799,1.5798,1.5793,1.5785,1.5792,1.5802,1.5801,1.579,1.5791,1.5791,0,1.6143,1.6104,1.6084,1.6071,1.603,1.6021,1.6003,1.5974,1.5958,1.5932,1.5921,1.5893,1.5877,1.5855,1.5827,1.5824,1.5798,1.5788,1.5784,1.5785,1.5779,1.5779,1.5786,1.5771,1.5771,1.5771,1.5771,0,1.6144,1.6128,1.6091,1.6078,1.606,1.6033,1.6015,1.5995,1.5969,1.5951,1.5927,1.5911,1.5876,1.5854,1.5832,1.5809,1.5802,1.5789,1.5783,1.5791,1.5792,1.578,1.5779,1.5771,1.5771,1.5771,1.5771,0,1.616,1.6134,1.611,1.6074,1.6065,1.6053,1.6022,1.6008,1.5987,1.5964,1.5957,1.5923,1.5897,1.5867,1.5831,1.5816,1.5794,1.5786,1.5804,1.5801,1.5798,1.5799,1.5796,1.5794,1.5782,1.5782,1.5782,0,1.6162,1.615,1.6113,1.61,1.6084,1.6063,1.6047,1.6019,1.6003,1.5969,1.5959,1.5932,1.5908,1.5867,1.5838,1.581,1.58,1.5802,1.5796,1.5804,1.5799,1.58,1.5799,1.5803,1.5803,1.5803,1.5804,0,1.6168,1.6156,1.6135,1.6109,1.6091,1.607,1.6046,1.6037,1.6004,1.5987,1.5961,1.5943,1.5907,1.5879,1.5848,1.5828,1.581,1.5806,1.5803,1.581,1.5821,1.5815,1.5808,1.5806,1.5806,1.5805,1.5805,1.5805,1.6176,1.6164,1.6137,1.6114,1.6094,1.6074,1.6059,1.6037,1.6015,1.5984,1.5969,1.5943,1.5913,1.587,1.5851,1.5829,1.5823,1.5819,1.5818,1.5818,1.5819,1.5826,1.5823,1.5823,1.5823,1.5823,1.5822,0,1.618,1.6162,1.6141,1.6111,1.6093,1.608,1.6054,1.6039,1.6017,1.5992,1.597,1.5939,1.5913,1.5883,1.5854,1.5842,1.5833,1.5835,1.5835,1.5831,1.5827,1.5831,1.5843,1.5843,1.5843,1.5843,1.5843,1.5843,1.618,1.616,1.6145,1.6114,1.6095,1.6071,1.6057,1.6037,1.6017,1.5985,1.5964,1.5945,1.5918,1.5887,1.5861,1.5853,1.5843,1.5848,1.5837,1.5833,1.5831,1.583,1.5834,1.5846,1.5846,1.5843,1.5843,1.5843]}]]